This demonstration page uses our WeatherBlox Daily Observations layout. Learn more.

Left ArrowRight Arrow

Hourly Observations for February 21, 2019

Temp ( °F °C ) Dew Point ( °F °C ) Humidity (%) Winds ( mph kmh ) Pressure ( in mb ) Visibility ( mi km ) Precip ( " mm )
12:53 am 00:53 Cloudy with Light Rain 43 6.1 43 6.1 100 100 NNE 5 7 30.09 1019 10 16 0.05 1.27
1:23 am 01:23 Cloudy with Nearby Thunderstorms 43 6.1 43 6.1 100 100 N 5 7 30.10 1019 10 16 0.00 0.03
1:38 am 01:38 Cloudy with Light Rain 43 6.1 43 6.1 100 100 NNE 5 7 30.10 1019 8 13 0.02 0.51
1:53 am 01:53 Cloudy with Light Rain 43 6.1 43 6.1 100 100 NE 8 13 30.05 1018 10 16 0.02 0.51
2:23 am 02:23 Cloudy with Light Rain 43 6.1 43 6.1 100 100 NNE 3 6 30.10 1019 10 16 0.02 0.51
2:53 am 02:53 Cloudy with Heavy Rain 43 6.1 43 6.1 100 100 ENE 5 7 30.06 1018 4 6 0.07 1.78
3:04 am 03:04 Cloudy with Rain 43 6.1 43 6.1 100 100 NE 3 6 30.08 1019 5 8 0.03 0.76
3:35 am 03:35 Cloudy with Light Rain 43 6.1 43 6.1 100 100 NNE 5 7 30.06 1018 10 16 0.05 1.27
3:53 am 03:53 Cloudy with Light Rain 43 6.1 43 6.1 100 100 ENE 5 7 30.04 1017 10 16 0.05 1.27
4:03 am 04:03 Cloudy with Light Rain 44 6.7 44 6.7 100 100 Calm 30.06 1018 10 16 0.00 0.03
4:14 am 04:14 Cloudy with Rain 44 6.7 44 6.7 100 100 Calm 30.06 1018 6 10 0.02 0.51
4:53 am 04:53 Cloudy with Light Rain 44 6.7 44 6.7 100 100 Calm 30.05 1018 3 5 0.09 2.29
5:01 am 05:01 Cloudy with Light Rain 44 6.7 44 6.7 100 100 N 3 6 30.08 1019 4 6 0.00 0.03
5:27 am 05:27 Cloudy with Heavy Rain 44 6.7 44 6.7 100 100 Calm 30.11 1020 2 3 0.13 3.30
5:31 am 05:31 Cloudy with Heavy Rain 44 6.7 44 6.7 100 100 E 3 6 30.11 1020 2 3 0.16 4.06
5:34 am 05:34 Cloudy with Rain 44 6.7 44 6.7 100 100 Calm 30.11 1020 3 5 0.17 4.32
5:49 am 05:49 Cloudy with Rain 45 7 45 7 100 100 S 3 6 30.09 1019 5 8 0.24 6.10
5:53 am 05:53 Cloudy with Light Rain 44 6.7 44 6.7 100 100 Calm 30.08 1019 6 10 0.25 6.35
6:01 am 06:01 Cloudy with Light Rain 45 7.2 45 7.2 100 100 NNW 3 6 30.10 1019 7 11 0.00 0.03
6:23 am 06:23 Cloudy with Light Rain 44 6.7 44 6.7 100 100 Calm 30.10 1019 3 5 0.02 0.51
6:53 am 06:53 Cloudy with Mist and Fog 45 7.2 45 7.2 100 100 NE 5 7 30.06 1018 3 5 0.02 0.51
7:37 am 07:37 Cloudy with Mist and Fog 45 7.2 45 7.2 100 100 NNW 5 7 30.13 1020 2 2 0.00 0.00
7:53 am 07:53 Cloudy with Light Rain 45 7.2 45 7.2 100 100 N 5 7 30.12 1020 1 2 0.02 0.51
8:17 am 08:17 Cloudy with Mist and Fog 45 7.2 45 7.2 100 100 Calm 30.15 1021 2 3 0.00 0.03
8:40 am 08:40 Cloudy with Mist and Fog 46 7.8 46 7.8 100 100 Calm 30.15 1021 2 2 0.00 0.03
8:53 am 08:53 Cloudy with Mist and Fog 46 7.8 46 7.8 100 100 E 3 6 30.13 1020 1 2 0.00 0.03
9:53 am 09:53 Cloudy with Mist and Fog 46 7.8 46 7.8 100 100 NE 3 6 30.15 1021 1 2 0.00 0.00
10:00 am 10:00 Cloudy with Mist and Fog 47 8.3 47 8.3 100 100 NNE 3 6 30.17 1022 1 1 0.00 0.00
10:21 am 10:21 Cloudy with Fog 47 8.3 47 8.3 100 100 NNE 3 6 30.17 1022 1 1 0.00 0.00
10:41 am 10:41 Cloudy with Mist and Fog 47 8.3 47 8.3 100 100 Calm 30.16 1021 1 1 0.00 0.00
10:53 am 10:53 Cloudy with Mist and Fog 48 8.9 48 8.9 100 100 NE 3 6 30.14 1021 1 1 0.00 0.00
11:34 am 11:34 Cloudy with Fog 49 9.4 49 9.4 100 100 Calm 30.15 1021 1 1 0.00 0.00
11:53 am 11:53 Cloudy with Fog 49 9.4 49 9.4 100 100 Calm 30.14 1021 1 1 0.00 0.00
12:02 pm 12:02 Cloudy with Mist and Fog 50 10 50 10 100 100 N 5 7 30.14 1021 1 1 0.00 0.00
12:12 pm 12:12 Cloudy with Mist and Fog 50 10 50 10 100 100 Calm 30.14 1021 1 2 0.00 0.00
12:25 pm 12:25 Cloudy with Mist and Fog 50 10 50 10 100 100 N 3 6 30.13 1020 1 1 0.00 0.00
12:53 pm 12:53 Cloudy with Mist and Fog 51 10.6 51 10.6 100 100 Calm 30.12 1020 2 2 0.00 0.00
1:08 pm 13:08 Cloudy with Mist and Fog 52 11.1 52 11.1 100 100 N 3 6 30.12 1020 3 4 0.00 0.00
1:33 pm 13:33 Cloudy with Mist and Fog 54 12.2 54 12.2 100 100 N 3 6 30.10 1019 3 5 0.00 0.00
1:45 pm 13:45 Cloudy with Mist and Fog 54 12.2 54 12.2 100 100 Calm 30.09 1019 4 6 0.00 0.00
1:53 pm 13:53 Cloudy with Mist and Fog 55 12.8 55 12.8 100 100 Calm 30.09 1019 5 8 0.00 0.00
2:08 pm 14:08 Cloudy with Mist and Fog 56 13.3 55 12.8 97 97 Calm 30.09 1019 5 8 0.00 0.00
2:53 pm 14:53 Cloudy with Mist and Fog 59 15 57 13.9 93 93 VRB 3 6 30.07 1018 6 10 0.00 0.00
3:42 pm 15:42 Cloudy with Light Rain 60 15.6 58 14.4 93 93 N 5 7 30.06 1018 6 10 0.00 0.03
3:53 pm 15:53 Cloudy with Light Rain 60 15.6 58 14.4 93 93 NNE 5 7 30.06 1018 5 8 0.00 0.03
4:53 pm 16:53 Cloudy with Mist and Fog 61 16.1 59 15 93 93 NE 6 9 30.07 1018 6 10 0.00 0.03
5:23 pm 17:23 Cloudy with Mist and Fog 61 16.1 59 15 93 93 NNE 6 9 30.06 1018 6 10 0.00 0.00
5:34 pm 17:34 Cloudy with Mist and Fog 60 15.6 59 15 96 96 NE 5 7 30.06 1018 6 10 0.00 0.00
5:53 pm 17:53 Cloudy with Mist and Fog 60 15.6 59 15 96 96 ENE 5 7 30.06 1018 6 10 0.00 0.00
6:17 pm 18:17 Cloudy with Mist and Fog 60 15.6 59 15 96 96 NNE 5 7 30.06 1018 6 10 0.00 0.00
6:43 pm 18:43 Cloudy 60 15.6 59 15 96 96 ENE 3 6 30.06 1018 7 11 0.00 0.00
6:53 pm 18:53 Cloudy 60 15.6 59 15 96 96 NE 6 9 30.07 1018 7 11 0.00 0.00
7:43 pm 19:43 Cloudy with Heavy Rain 59 15 59 15 100 100 ENE 5 7 30.06 1018 3 4 0.05 1.27
7:53 pm 19:53 Cloudy with Light Rain 59 15 59 15 100 100 NE 6 9 30.06 1018 4 6 0.06 1.52
8:17 pm 20:17 Cloudy with Mist and Fog 58 14.4 58 14.4 100 100 NNE 5 7 30.06 1018 4 6 0.00 0.03
8:53 pm 20:53 Cloudy with Mist and Fog 58 14.4 58 14.4 100 100 Calm 30.07 1018 4 6 0.00 0.03
9:53 pm 21:53 Cloudy with Mist and Fog 59 15 59 15 100 100 Calm 30.09 1019 5 8 0.00 0.00
10:53 pm 22:53 Cloudy with Mist and Fog 57 13.9 57 13.9 100 100 N 6 9 30.10 1019 5 8 0.00 0.00
11:53 pm 23:53 Cloudy with Light Rain 55 12.8 55 12.8 100 100 Calm 30.11 1020 8 13 0.05 1.27

Powered by AerisWeather